Location: La Fredeussais
(48.1780°N, 1.3980°W)
Time: 02:57:04
(UTC+00:00)

ARIANE 5 R/B - Pass Details

Date: 09 May 2021
Orbit: 620 x 656 km, 98.1° (Epoch: 09 June)

Event Time Altitude Azimuth Distance (km) Brightness Sun altitude
Exits shadow 21:43:45 23° 191° (S) 1,311 3.8 -17.3°
Maximum altitude 21:46:12 54° 259° (W) 762 3.1 -17.6°
Drops below altitude 10° 21:50:28 10° 337° (NNW) 1,999 6.4 -18.0°
Sets 21:52:42 0° 343° (NNW) 2,911 7.5 -18.2°
